Location: Follega
(52.8850°N, 5.7362°E)
Time: 03:49:20
(UTC+00:00)

Cosmos 2297 Rocket - Pass Details

Date: 10 October 2020
Orbit: 838 x 845 km, 71.0° (Epoch: 26 October)

Event Time Altitude Azimuth Distance (km) Brightness Sun altitude
Rises 18:47:56 0° 326° (NW) 3,417 6.1 -18.2°
Reaches altitude 10° 18:50:59 10° 342° (NNW) 2,479 5.0 -18.7°
Maximum altitude 18:55:20 22° 32° (NNE) 1,782 3.7 -19.3°
Enters shadow 18:56:49 20° 53° (NE) 1,875 3.7 -19.5°
